Weather History for KHLC - May, 2013

Change the Weather History Date:

Monday, May 13, 2013

  Actual Average Record
Temperature  
Mean Temperature 71 °F 62 °F  
Max Temperature 96 °F 74 °F 96 °F (1915)
Min Temperature 45 °F 49 °F 28 °F (1966)
Cooling Degree Days 6    
Growing Degree Days 20 (Base 50)    
Moisture  
Dew Point 45 °F    
Average Humidity 53    
Maximum Humidity 93    
Minimum Humidity 13    
Precipitation  
Precipitation 0.00 in 0.13 in 0.01 in (2011)
Month to date precipitation 0.79 1.51  
Year to date precipitation 3.01 6.23  
Sea Level Pressure  
Sea Level Pressure 29.96 in    
Wind  
Wind Speed 4 mph (SSW)    
Max Wind Speed 16 mph    
Max Gust Speed 22 mph    
Visibility 10 miles    
Events      
T = Trace of Precipitation, MM = Missing Value Source: NWS Daily Summary

Daily Weather History Graph

Daily Weather History Graph

Search for Another Location

Airport or City:

Trip Planner

Search our weather history database for the weather conditions in past years. The results will help you decide how hot, cold, wet, or windy it might be!

Date:

Astronomy

May. 13, 2013 Rise Set
Actual Time 6:27 AM CDT 8:44 PM CDT
Civil Twilight 5:57 AM CDT 9:14 PM CDT
Nautical Twilight 5:20 AM CDT 9:52 PM CDT
Astronomical Twilight 4:39 AM CDT 10:33 PM CDT
Moon 9:14 AM CDT (5/13) 11:55 PM CDT (5/13)
Length of Visible Light 15h 17m
Length of Day
14h 17m
Waxing Crescent, 12% of the Moon is Illuminated
May 13
Waxing Crescent
May 17
First Quarter
May 24
Full
May 31
Last Quarter
Jun 8
New

Hourly Weather History & Observations

Time (CDT) Temp. Dew Point Humidity Pressure Visibility Wind Dir Wind Speed Gust Speed Precip Events Conditions
12:53 AM 57.0 °F 48.0 °F 72% 30.03 in 10.0 mi SE 4.6 mph - N/A   Clear
1:53 AM 55.0 °F 46.9 °F 74% 30.03 in 10.0 mi Calm Calm - N/A   Clear
2:53 AM 53.1 °F 46.9 °F 80% 30.02 in 10.0 mi Calm Calm - N/A   Clear
3:53 AM 48.0 °F 45.0 °F 89% 30.02 in 10.0 mi Calm Calm - N/A   Clear
4:53 AM 46.9 °F 44.1 °F 90% 30.01 in 10.0 mi Calm Calm - N/A   Clear
5:53 AM 46.0 °F 44.1 °F 93% 30.01 in 10.0 mi Calm Calm - N/A   Clear
6:53 AM 45.0 °F 43.0 °F 93% 30.02 in 10.0 mi Calm Calm - N/A   Clear
7:53 AM 52.0 °F 46.9 °F 83% 30.02 in 10.0 mi Calm Calm - N/A   Clear
8:53 AM 57.9 °F 48.9 °F 72% 30.02 in 10.0 mi Calm Calm - N/A   Clear
9:53 AM 66.9 °F 51.1 °F 57% 30.01 in 10.0 mi Calm Calm - N/A   Clear
10:53 AM 82.0 °F 43.0 °F 25% 29.98 in 10.0 mi SSW 12.7 mph - N/A   Clear
11:53 AM 84.9 °F 42.1 °F 22% 29.97 in 10.0 mi South 16.1 mph 21.9 mph N/A   Clear
12:53 PM 87.1 °F 42.1 °F 21% 29.96 in 10.0 mi South 16.1 mph 21.9 mph N/A   Clear
3:53 PM 96.1 °F 39.0 °F 14% 29.90 in 10.0 mi SSW 6.9 mph - N/A   Clear
4:53 PM 96.1 °F 37.9 °F 13% 29.88 in 10.0 mi West 9.2 mph - N/A   Partly Cloudy
5:53 PM 95.0 °F 37.9 °F 14% 29.87 in 10.0 mi South 6.9 mph - N/A   Clear
7:53 PM 89.1 °F 42.1 °F 19% 29.86 in 10.0 mi SSW 4.6 mph - N/A   Clear
8:53 PM 82.0 °F 42.1 °F 24% 29.87 in 10.0 mi Calm Calm - N/A   Clear
9:53 PM 77.0 °F 50.0 °F 39% 29.88 in 10.0 mi South 11.5 mph - N/A   Clear
10:53 PM 73.0 °F 54.0 °F 51% 29.87 in 10.0 mi South 10.4 mph - N/A   Clear
11:53 PM 71.1 °F 55.9 °F 59% 29.86 in 10.0 mi South 8.1 mph - N/A   Clear